User: anonymous   Login
Location: Unspecified
(0.0000°N, 0.0000°E)
Time: 22:16:38
(UTC+00:00)
Language:

STARLINK-36085 - Orbit

View from above orbital plane
View from above orbital plane
View from above satellite
View from above satellite

Ground track
Ground track

The orbit is defined by the following mean orbital elements,

1 67035U          26145.50836054 +.00000000 +00000-0 +59028-3 0 00000
2 67035  43.0012 324.5880 0001528 266.5341  93.5336 15.27589883    01
Epoch (UTC): 25 May 2026 12:12:02
Eccentricity: 0.0001528
inclination: 43.0012°
perigee height: 482 km
apogee height: 484 km
right ascension of ascending node: 324.5880°
argument of perigee: 266.5341°
revolutions per day: 15.27589883
mean anomaly at epoch: 93.5336°

The dashed part of the orbit path shows where the satellite is in the earth's shadow,  

DLR